Hourly Data Report for July 20, 2021

CAPE RACE (AUT)
NEWFOUNDLAND
Current Station Operator: ECCC - MSC

46°39'36.000" N
53°04'35.000" W
26.50 m
8401000
71800
WRA

Download Data

Hourly Data (July 2021)
Hourly Data Report for July 20, 2021
TIME
LST
Temp Definition
°C
Dew Point Definition
°C
Rel Hum Definition
%
Precip. Amount Definition
mm

Wind Dir Definition
10's deg

Wind Spd Definition
km/h
Visibility Definition
km
Stn Press Definition
kPa
Hmdx Definition


Wind Chill Definition


Weather Definition


00:30 14.2 LegendMM LegendMM 0.0 14 6   101.43     LegendNANA
01:30 13.7 LegendMM LegendMM 0.0 19 10   101.36     LegendNANA
02:30 13.8 LegendMM LegendMM 0.0 17 11   101.29     LegendNANA
03:30 14.2 LegendMM LegendMM 0.0 12 9   101.23     LegendNANA
04:30 13.6 LegendMM LegendMM 0.6 16 13   101.17     LegendNANA
05:30 13.8 LegendMM LegendMM 1.5 19 12   101.15     LegendNANA
06:30 14.9 LegendMM LegendMM 0.2 23 15   101.14     LegendNANA
07:30 15.2 LegendMM LegendMM 0.3 23 14   101.15     LegendNANA
08:30 16.5 LegendMM LegendMM 0.2 24 13   101.15     LegendNANA
09:30 16.9 LegendMM LegendMM 5.4 24 19   101.15     LegendNANA
10:30 17.5 LegendMM LegendMM 1.6 24 17   101.13     LegendNANA
11:30 16.5 LegendMM LegendMM 0.0 22 25   101.09     LegendNANA
12:30 16.6 LegendMM LegendMM 0.0 22 25   101.08     LegendNANA
13:30 16.5 LegendMM LegendMM 0.0 21 30   101.06     LegendNANA
14:30 15.7 LegendMM LegendMM 0.0 21 29   101.05     LegendNANA
15:30 15.8 LegendMM LegendMM 0.0 21 28   101.03     LegendNANA
16:30 16.4 LegendMM LegendMM 0.0 22 30   101.03     LegendNANA
17:30 16.2 LegendMM LegendMM 0.0 22 28   101.01     LegendNANA
18:30 15.7 LegendMM LegendMM 0.0 21 27   100.99     LegendNANA
19:30 15.4 LegendMM LegendMM 0.0 21 26   100.97     LegendNANA
20:30 15.8 LegendMM LegendMM 0.0 22 27   101.00     LegendNANA
21:30 15.8 LegendMM LegendMM 0.3 22 25   101.00     LegendNANA
22:30 15.4 LegendMM LegendMM 0.0 21 23   100.97     LegendNANA
23:30 15.2 LegendMM LegendMM 0.0 21 24   100.95     LegendNANA

Notes on Data Quality.

Legend

  • E = Estimated
  • M = Missing
  • NA = Not Available*
  • [empty] = Indicates an unobserved value
Date modified: